Regional Weather Roundup
Issued by NWS

Home | Current Version | Previous Version | Graphics & Text | Print | Product List | Glossary On
Versions: 1 2 3 4 5 6 7 8 9 10 11 12 13 14 15 16 17 18 19 20 21 22 23 24 25 26 27 28 29 30 31 32 33 34 35 36 37 38 39 40 41 42 43 44 45 46 47 48 49 50
000
ASUS43 KFSD 170402
RWRSD

WEATHER ROUNDUP FOR SOUTH DAKOTA
NATIONAL WEATHER SERVICE SIOUX FALLS SD
1100 PM CDT WED AUG 16 2017

NOTE: "FAIR" INDICATES FEW OR NO CLOUDS BELOW 12,000 FEET WITH NO
SIGNIFICANT WEATHER AND/OR OBSTRUCTIONS TO VISIBILITY.


SDZ001>005-009-010-012>017-170500-
NORTHWEST AND NORTH CENTRAL SOUTH DAKOTA

CITY           SKY/WX    TMP DP  RH WIND       PRES   REMARKS
BUFFALO          N/A     64  50  60 SE9       29.89S
FAITH            N/A     66  49  54 S7        29.95S
MOBRIDGE       CLEAR     60  56  86 NE6       29.89R
$$

SDZ012>016-024>037-041>051-057-063-072>074-170500-
SOUTHWEST AND SOUTH CENTRAL SOUTH DAKOTA

CITY           SKY/WX    TMP DP  RH WIND       PRES   REMARKS
RAPID CTY ARPT CLEAR     59  51  75 CALM      30.00R
PIERRE         CLEAR     60  54  80 W8        29.90R
CUSTER         CLEAR     54  46  74 NW3       30.13S
ELLSWORTH AFB  CLEAR     65  52  62 S5        29.99S
PHILIP         CLEAR     58  49  72 CALM      29.96R
PINE RIDGE     CLEAR     57  54  89 CALM      30.02S
SPEARFISH      FAIR      63  45  51 CALM      30.02F
WINNER         FAIR      62  56  80 NW7       29.94R
$$

SDZ004>011-016>023-039-040-170500-
NORTHEAST SOUTH DAKOTA

CITY           SKY/WX    TMP DP  RH WIND       PRES   REMARKS
ABERDEEN       CLOUDY    64  62  93 N9        29.84R
WATERTOWN      LGT RAIN  64  64 100 N16       29.77R
BROOKINGS      RAIN      65  64  97 NW14      29.75R
SISSETON         N/A     65  65 100 N13       29.77R
$$

SDZ017-020-022-023-036>040-048>070-170500-
SOUTHEAST SOUTH DAKOTA

CITY           SKY/WX    TMP DP  RH WIND       PRES   REMARKS
SIOUX FALLS    LGT RAIN  66  66 100 W7G17     29.76R FOG
HURON          CLOUDY    66  64  93 NW14      29.83R
CHAMBERLAIN    CLEAR     65  63  93 W9        29.90R
MITCHELL       LGT RAIN  67  66  97 NW12      29.83R
$$

ABBREVIATIONS USED IN REMARKS
   TC - TEMPERATURE IN CELSIUS
  WCI - WIND CHILL INDEX
   HX - HEAT INDEX
  VSB - VISIBILITY





USA.gov is the U.S. government's official web portal to all federal, state and local government web resources and services.